| time (UTC) | temp C | wind direction | speed KPH | gust KPH | rain 1hr cm | rain 24hr cm | rain mn cm | humidity % | barometer mb |
| 20260507094509 | 11 | 274 | 0.0 | 0.0 | 0.00 | 0.00 | 0.00 | 76 | 1021.3 |
| 20260507093009 | 11 | 276 | 0.0 | 1.6 | 0.00 | 0.00 | 0.00 | 76 | 1021.5 |
| 20260507091504 | 11 | 277 | 0.0 | 3.2 | 0.00 | 0.00 | 0.00 | 76 | 1021.7 |
| 20260507090003 | 11 | 274 | 0.0 | 4.8 | 0.00 | 0.00 | 0.00 | 76 | 1021.6 |
| 20260507084501 | 11 | 279 | 0.0 | 0.0 | 0.00 | 0.00 | 0.00 | 77 | 1021.6 |
| 20260507083101 | 11 | 285 | 0.0 | 1.6 | 0.00 | 0.00 | 0.00 | 77 | 1021.6 |
| 20260507081602 | 11 | 289 | 0.0 | 1.6 | 0.00 | 0.00 | 0.00 | 79 | 1021.6 |
| 20260507080057 | 11 | 277 | 0.0 | 4.8 | 0.00 | 0.00 | 0.00 | 78 | 1021.5 |
| 20260507074601 | 11 | 273 | 0.0 | 1.6 | 0.00 | 0.00 | 0.00 | 78 | 1021.5 |
| 20260507073133 | 12 | 266 | 0.0 | 6.4 | 0.00 | 0.00 | 0.00 | 78 | 1021.5 |
| 20260507071555 | 11 | 281 | 0.0 | 1.6 | 0.00 | 0.00 | 0.00 | 78 | 1021.5 |
| 20260507070053 | 11 | 277 | 0.0 | 3.2 | 0.00 | 0.00 | 0.00 | 79 | 1021.4 |
| 20260507064608 | 11 | 24 | 1.6 | 9.7 | 0.00 | 0.00 | 0.00 | 79 | 1021.3 |
| 20260507063102 | 11 | 334 | 0.0 | 8.0 | 0.00 | 0.00 | 0.00 | 80 | 1021.4 |
| 20260507061551 | 11 | 25 | 0.0 | 16.1 | 0.00 | 0.00 | 0.00 | 81 | 1021.4 |
| 20260507060055 | 11 | 360 | 1.6 | 16.1 | 0.00 | 0.00 | 0.00 | 82 | 1021.5 |
| 20260507054548 | 11 | 4 | 0.0 | 6.4 | 0.00 | 0.00 | 0.00 | 83 | 1021.4 |
| 20260507053047 | 12 | 35 | 1.6 | 8.0 | 0.00 | 0.00 | 0.00 | 83 | 1021.3 |
| 20260507051547 | 12 | 349 | 1.6 | 8.0 | 0.00 | 0.00 | 0.00 | 82 | 1021.3 |
| 20260507050050 | 12 | 4 | 0.0 | 8.0 | 0.00 | 0.00 | 0.00 | 81 | 1021.4 |
| 20260507044547 | 12 | 340 | 1.6 | 11.3 | 0.00 | 0.00 | 0.00 | 81 | 1021.4 |
| 20260507043047 | 12 | 18 | 3.2 | 9.7 | 0.00 | 0.00 | 0.00 | 80 | 1021.3 |
| 20260507041547 | 13 | 345 | 0.0 | 14.5 | 0.00 | 0.00 | 0.00 | 80 | 1021.1 |
| 20260507040041 | 13 | 9 | 0.0 | 24.1 | 0.00 | 0.00 | 0.00 | 79 | 1021.0 |
| 20260507034549 | 13 | 336 | 6.4 | 12.9 | 0.00 | 0.00 | 0.00 | 79 | 1020.8 |
| 20260507033057 | 13 | 25 | 1.6 | 14.5 | 0.00 | 0.00 | 0.00 | 79 | 1020.7 |
| 20260507031539 | 13 | 322 | 8.0 | 19.3 | 0.00 | 0.00 | 0.00 | 78 | 1020.4 |
| 20260507030039 | 14 | 322 | 4.8 | 24.1 | 0.00 | 0.00 | 0.00 | 78 | 1020.2 |
| 20260507024550 | 14 | 1 | 3.2 | 16.1 | 0.00 | 0.00 | 0.00 | 77 | 1020.0 |
| 20260507023038 | 15 | 334 | 3.2 | 16.1 | 0.00 | 0.00 | 0.00 | 77 | 1019.9 |
| 20260507021537 | 15 | 335 | 3.2 | 17.7 | 0.00 | 0.00 | 0.00 | 76 | 1019.8 |
| 20260507020037 | 15 | 359 | 0.0 | 17.7 | 0.00 | 0.00 | 0.00 | 76 | 1019.8 |
| 20260507014534 | 15 | 41 | 4.8 | 17.7 | 0.00 | 0.00 | 0.00 | 75 | 1020.0 |
| 20260507013037 | 15 | 330 | 9.7 | 20.9 | 0.00 | 0.00 | 0.00 | 73 | 1020.0 |
| 20260507011535 | 16 | 359 | 4.8 | 17.7 | 0.00 | 0.00 | 0.00 | 71 | 1020.0 |
| 20260507010037 | 17 | 360 | 8.0 | 20.9 | 0.00 | 0.00 | 0.00 | 70 | 1020.0 |
| 20260507004530 | 17 | 17 | 6.4 | 24.1 | 0.00 | 0.00 | 0.00 | 70 | 1020.0 |
| 20260507003029 | 18 | 92 | 3.2 | 16.1 | 0.00 | 0.00 | 0.00 | 69 | 1019.9 |
| 20260507001530 | 18 | 24 | 3.2 | 14.5 | 0.00 | 0.00 | 0.00 | 68 | 1019.8 |
| 20260507000029 | 18 | 20 | 4.8 | 12.9 | 0.00 | 0.00 | 0.00 | 69 | 1019.9 |
| 20260506234543 | 18 | 42 | 1.6 | 8.0 | 0.00 | 0.00 | 0.00 | 70 | 1019.8 |
| 20260506233027 | 18 | 151 | 1.6 | 6.4 | 0.00 | 0.00 | 0.00 | 68 | 1019.8 |
| 20260506231526 | 19 | 46 | 0.0 | 8.0 | 0.00 | 0.00 | 0.00 | 67 | 1019.8 |
| 20260506230024 | 19 | 316 | 0.0 | 3.2 | 0.00 | 0.00 | 0.00 | 67 | 1020.0 |
| 20260506224528 | 18 | 61 | 0.0 | 3.2 | 0.00 | 0.00 | 0.00 | 68 | 1020.2 |
| 20260506223023 | 18 | 1 | 3.2 | 9.7 | 0.00 | 0.00 | 0.00 | 68 | 1020.3 |
| 20260506221522 | 19 | 85 | 0.0 | 6.4 | 0.00 | 0.00 | 0.00 | 67 | 1020.3 |
| 20260506220032 | 18 | 228 | 1.6 | 9.7 | 0.00 | 0.00 | 0.00 | 68 | 1020.4 |
| 20260506214521 | 18 | 120 | 3.2 | 11.3 | 0.00 | 0.00 | 0.00 | 67 | 1020.4 |
| 20260506213019 | 18 | 168 | 1.6 | 8.0 | 0.00 | 0.00 | 0.00 | 69 | 1020.4 |
| 20260506211520 | 18 | 99 | 1.6 | 6.4 | 0.00 | 0.00 | 0.00 | 70 | 1020.7 |
| 20260506210013 | 17 | 150 | 0.0 | 4.8 | 0.00 | 0.00 | 0.00 | 73 | 1020.9 |
| 20260506204514 | 17 | 17 | 0.0 | 3.2 | 0.00 | 0.00 | 0.00 | 72 | 1020.8 |
| 20260506203014 | 17 | 119 | 0.0 | 8.0 | 0.00 | 0.00 | 0.00 | 73 | 1020.8 |
| 20260506201513 | 17 | 79 | 0.0 | 3.2 | 0.00 | 0.00 | 0.00 | 74 | 1020.7 |
| 20260506200008 | 16 | 80 | 0.0 | 3.2 | 0.00 | 0.00 | 0.00 | 75 | 1020.9 |
| 20260506194508 | 16 | 75 | 0.0 | 8.0 | 0.00 | 0.00 | 0.00 | 76 | 1021.1 |
| 20260506193006 | 16 | 96 | 0.0 | 1.6 | 0.00 | 0.00 | 0.00 | 75 | 1021.3 |
| 20260506191503 | 16 | 164 | 0.0 | 1.6 | 0.00 | 0.00 | 0.00 | 76 | 1021.2 |
| 20260506190002 | 16 | 276 | 0.0 | 3.2 | 0.00 | 0.00 | 0.00 | 76 | 1021.1 |
| 20260506184600 | 16 | 147 | 0.0 | 8.0 | 0.00 | 0.00 | 0.00 | 78 | 1021.0 |
| 20260506183101 | 15 | 106 | 0.0 | 3.2 | 0.00 | 0.00 | 0.00 | 81 | 1021.0 |
| 20260506181613 | 14 | 100 | 0.0 | 4.8 | 0.00 | 0.00 | 0.00 | 82 | 1021.2 |
| 20260506180054 | 14 | 140 | 0.0 | 1.6 | 0.00 | 0.00 | 0.00 | 83 | 1021.1 |
| 20260506174553 | 14 | 193 | 0.0 | 0.0 | 0.00 | 0.00 | 0.00 | 83 | 1021.2 |
| 20260506173120 | 13 | 194 | 0.0 | 1.6 | 0.00 | 0.00 | 0.00 | 84 | 1021.0 |
| 20260506171556 | 13 | 70 | 0.0 | 1.6 | 0.00 | 0.00 | 0.00 | 84 | 1020.8 |
| 20260506170058 | 13 | 91 | 0.0 | 1.6 | 0.00 | 0.00 | 0.00 | 85 | 1020.8 |
| 20260506164549 | 13 | 265 | 0.0 | 1.6 | 0.00 | 0.00 | 0.00 | 84 | 1021.0 |
| 20260506163048 | 13 | 109 | 0.0 | 4.8 | 0.00 | 0.00 | 0.00 | 84 | 1020.9 |
| 20260506161549 | 13 | 131 | 0.0 | 0.0 | 0.00 | 0.00 | 0.00 | 85 | 1020.8 |
| 20260506160058 | 13 | 23 | 0.0 | 4.8 | 0.00 | 0.00 | 0.00 | 85 | 1020.7 |
| 20260506154548 | 13 | 101 | 0.0 | 3.2 | 0.00 | 0.00 | 0.00 | 86 | 1020.4 |
| 20260506153044 | 12 | 108 | 0.0 | 3.2 | 0.00 | 0.00 | 0.00 | 87 | 1020.0 |
| 20260506151546 | 12 | 330 | 0.0 | 3.2 | 0.00 | 0.00 | 0.00 | 87 | 1020.8 |
| 20260506150049 | 12 | 333 | 0.0 | 6.4 | 0.00 | 0.00 | 0.00 | 87 | 1020.9 |
| 20260506144545 | 12 | 44 | 0.0 | 8.0 | 0.00 | 0.00 | 0.00 | 87 | 1020.8 |
| 20260506143040 | 12 | 44 | 0.0 | 8.0 | 0.00 | 0.00 | 0.00 | 87 | 1020.6 |
| 20260506141537 | 12 | 9 | 0.0 | 6.4 | 0.00 | 0.00 | 0.00 | 87 | 1020.0 |
| 20260506140035 | -17 | 0.0 | 0.0 | 0.00 | 0.00 | 0.00 | 1019.8 | ||
| 20260506134527 | -17 | 0.0 | 0.0 | 0.00 | 0.00 | 0.00 | 1019.8 | ||
| 20260506133023 | -17 | 0.0 | 0.0 | 0.00 | 0.00 | 0.00 | 1019.7 | ||
| 20260506131539 | -17 | 0.0 | 0.0 | 0.00 | 0.00 | 0.00 | 1019.6 | ||
| 20260506130023 | -17 | 0.0 | 0.0 | 0.00 | 0.00 | 0.00 | 1019.2 | ||
| 20260506124510 | -17 | 0.0 | 0.0 | 0.00 | 0.00 | 0.00 | 1019.3 | ||
| 20260506123004 | -17 | 0.0 | 0.0 | 0.00 | 0.00 | 0.00 | 1019.2 | ||
| 20260506121602 | -17 | 0.0 | 0.0 | 0.00 | 0.00 | 0.00 | 1019.3 | ||
| 20260506120058 | 13 | 89 | 0.0 | 0.0 | 0.00 | 0.00 | 0.00 | 85 | 1019.2 |
| 20260506114559 | 13 | 136 | 0.0 | 0.0 | 0.00 | 0.00 | 0.00 | 85 | 1019.1 |
| 20260506113055 | 13 | 136 | 0.0 | 0.0 | 0.00 | 0.00 | 0.00 | 85 | 1018.9 |
| 20260506111553 | 13 | 136 | 0.0 | 0.0 | 0.00 | 0.00 | 0.00 | 85 | 1018.9 |
| 20260506110055 | 13 | 136 | 0.0 | 0.0 | 0.00 | 0.00 | 0.00 | 85 | 1018.6 |
| 20260506104555 | 13 | 136 | 0.0 | 0.0 | 0.00 | 0.00 | 0.00 | 85 | 1018.3 |
| 20260506103047 | 13 | 137 | 0.0 | 0.0 | 0.00 | 0.00 | 0.00 | 85 | 1018.2 |
| 20260506101545 | 13 | 136 | 0.0 | 0.0 | 0.00 | 0.00 | 0.00 | 85 | 1018.0 |
| 20260506100044 | 13 | 60 | 0.0 | 1.6 | 0.00 | 0.00 | 0.00 | 85 | 1017.9 |